www.pogodaiklimat.ru

Погода и климат >> Архив погоды >> Россия >> Хабаровский край >> Георгиевка


ПОГОДА в Георгиевке

  • Прогноз погоды в Георгиевке
  • Монитор погоды в Георгиевке
  • Климат города

АРХИВ ПОГОДЫ в Георгиевке

Время (UTC), дата Ветер
(напр.,м/с)
 
Видим.   Явления Облачность Т
(С)
Тd
(С)
f
(%)
Тe
(С)
Тes
(С)
Комфортность P
(гПа)
Po
(гПа)
Тmin
(С)
Tmax
(С)
R
(мм)
R24
(мм)
S
(см)
00 11.08 С 1 20 км 9/0
[Ci fib]
+23.3 +17.1 68 +28 +37 душно 1012.1 1004.1
03 11.08 СВ 2 20 км 8/8 600 м
[Cu hum]
+25.8 +16.1 55 +29 +32 душно 1011.6 1003.6
06 11.08 СВ 2 20 км 8/6 600 м
[Cu hum Ci fib]
+27.2 +17.0 54 +31 +34 душно 1010.4 1002.4
09 11.08 СВ 2 20 км 7 баллов +26.1 +18.0 61 +31 +31 очень
душно
1010.7 1002.7 +27.8
12 11.08 10 км н/о +21.8 +18.4 81 +27 +27 душно 1011.3 1003.2
15 11.08 В 1 10 км 8/0
[Ci]
+18.4 +17.2 93 +20 +20 1012.0 1003.8
18 11.08 СВ 1 10 км 10/10 600 м
[Sc]
+18.0 +16.7 92 +19 +19 1012.9 1004.7
21 11.08 В 1 20 км 7 баллов +18.7 +16.7 88 +21 +21 комфорт 1014.9 1006.7 +17.6
00 12.08 ЮВ 1 20 км 8/4 600 м
[Sc Ac trans]
+21.6 +15.0 66 +25 +29 комфорт 1014.0 1005.9
03 12.08 ЮВ 1 20 км 8/4 600 м
[Cb cap Ac trans]
+23.8 +16.1 62 +27 +34 жарко 1013.5 1005.4
06 12.08 СВ 2 20 км 9/9 600 м
[Cb cap]
+24.0 +16.8 64 +28 +29 душно 1012.9 1004.8
09 12.08 штиль 0 20 км 9 баллов +22.1 +19.1 83 +28 +28 душно 1013.4 1005.3 +25.5
12 12.08 В 1 10 км 8/8 600 м
[Cb cap]
+20.1 +18.6 91 +25 +25 комфорт 1013.3 1005.2
15 12.08 СВ 1 10 км 6/6 600 м
[Cb cap]
+18.3 +16.6 90 +20 +20 1013.8 1005.6
18 12.08 В 1 10 км 3/0
[Ac lent]
+15.7 +15.1 96 +16 +16 1013.9 1005.6
21 12.08 В 1 20 км 4 балла +15.4 +14.6 95 +16 +16 1015.0 1006.7 +14.2
00 13.08 СВ 1 20 км 8/8 600 м
[Sc]
+21.8 +15.3 67 +25 +27 комфорт 1014.4 1006.2
03 13.08 С 1 20 км 4/4 600 м
[Cu hum]
+24.4 +14.0 52 +27 +37 жарко 1013.5 1005.4
06 13.08 СВ 2 20 км 5/5 600 м
[Cu hum]
+26.0 +15.5 52 +29 +33 душно 1012.2 1004.2
09 13.08 штиль 0 20 км 2 балла +25.0 +16.2 58 +28 +29 жарко 1013.3 1005.3 +26.1
12 13.08 штиль 0 10 км ясно +16.8 +16.2 96 +17 +17 1012.5 1004.3
15 13.08 З 1 4000 м дымка 1/0
[Ac lent]
+14.7 +14.3 97 +15 +15 1012.9 1004.6
18 13.08 штиль 0 4000 м дымка ясно +13.8 +13.5 98 +13 +13 1012.7 1004.3
21 13.08 штиль 0 20 км ясно +14.6 +14.1 97 +14 +15 1013.6 1005.3 +12.8
00 14.08 В 1 20 км ясно +22.5 +17.5 73 +27 +38 душно 1011.8 1003.7
03 14.08 С 1 20 км 3/3
[Cu hum]
+27.2 +18.0 57 +32 +44 очень
душно
1011.3 1003.4
06 14.08 СВ 2 20 км 5/5 600 м
[Cu med, cong]
+28.4 +18.3 54 +33 +38 очень
душно
1010.1 1002.2
09 14.08 СВ 1 20 км ясно +27.1 +19.4 63 +33 +34 очень
душно
1010.6 1002.7 +28.8
12 14.08 штиль 0 10 км ясно +19.1 +18.5 96 +21 +21 комфорт 1010.4 1002.2
15 14.08 штиль 0 10 км ясно +16.7 +16.2 97 +17 +17 1011.2 1003.0
18 14.08 В 1 4000 м дымка ясно +15.6 +15.2 97 +16 +16 1011.5 1003.2
21 14.08 штиль 0 500 м туман 2 балла +15.5 +15.2 98 +15 +16 1013.6 1005.3 +14.7
00 15.08 СВ 1 20 км {туман} ясно +24.2 +19.5 75 +29 +40 душно 1011.6 1003.6
03 15.08 СВ 3 20 км 3/3 600 м
[Cu hum]
+28.4 +19.4 58 +34 +43 очень
душно
1010.4 1002.5
06 15.08 С 2 20 км 6/6 600 м
[Cb cap]
+28.5 +22.0 68 +37 +40 очень
душно
1009.0 1001.1
09 15.08 С 2 20 км 7 баллов +25.6 +19.2 68 +31 +31 очень
душно
1010.7 1002.7 +29.3
12 15.08 СВ 2 10 км 3/0
[Ac lent]
+21.7 +18.8 84 +27 +27 душно 1010.6 1002.5
15 15.08 СВ 3 10 км 3/0
[Ac lent]
+19.9 +17.6 87 +23 +23 комфорт 1010.8 1002.6
18 15.08 СВ 2 10 км 8/0
[Ci]
+18.6 +16.9 90 +20 +20 1011.6 1003.4
21 15.08 СВ 3 20 км 10 баллов +18.1 +16.4 90 +18 +18 1013.5 1005.3 +17.9
00 16.08 СВ 3 20 км 8/8
[Cb cap]
+19.4 +15.7 79 +21 +23 комфорт 1013.5 1005.3
03 16.08 СВ 3 20 км 8/8 600 м
[Cb cap]
+23.4 +16.2 64 +28 +31 душно 1012.9 1004.8
06 16.08 С 3 20 км 6/6 600 м
[Cb cap]
+24.0 +16.9 65 +28 +31 душно 1012.4 1004.4
09 16.08 С 2 20 км 2 балла +22.8 +17.0 70 +28 +28 душно 1013.4 1005.3 +24.6
12 16.08 С 2 10 км ясно +18.7 +15.8 83 +20 +20 1013.4 1005.2
15 16.08 С 2 10 км ясно +16.7 +15.3 91 +17 +17 1013.8 1005.5
18 16.08 С 2 10 км 10/10 600 м
[Cb cap]
+16.5 +15.3 93 +17 +17 1014.0 1005.7
21 16.08 СВ 2 20 км 10 баллов +15.9 +14.9 94 +16 +16 1015.0 1006.7 +15.8
00 17.08 СВ 2 20 км 10/5 600 м
[Sc As op]
+17.4 +15.3 87 +18 +19 1015.2 1006.9
03 17.08 В 2 20 км 9/9 600 м
[Sc]
+21.3 +16.6 75 +25 +26 комфорт 1014.2 1006.0
06 17.08 СВ 2 20 км 8/8 600 м
[Cb cap]
+23.1 +17.0 69 +28 +30 душно 1013.0 1004.9
09 17.08 СВ 1 20 км ясно +23.2 +16.7 67 +28 +29 душно 1013.4 1005.3 +24.9
12 17.08 штиль 0 10 км ясно +16.3 +15.8 97 +16 +16 1013.2 1004.9
15 17.08 штиль 0 10 км ясно +14.3 +14.0 98 +14 +14 1013.3 1005.0
18 17.08 штиль 0 10 км ясно +13.0 +12.7 98 +12 +12 1013.4 1005.0
21 17.08 штиль 0 20 км 10 баллов +14.7 +14.4 98 +14 +14 1015.0 1006.7 +12.8

 

Местоположение метеостанции Георгиевка (Хабаровский край, Россия): широта 47.95 долгота 135.20 высота над уровнем моря 70 м.

В архиве по умолчанию представлена погода в Георгиевке за последнюю неделю. Архивные данные за месяц целиком и за предыдущие месяцы, начиная с января 2011 года, Вы можете получить, выбрав интересующий диапазон дат из раскрывающегося списка и нажав кнопку "Ввод!".

Внимание! Время в таблицах - всемирное. Для получения местного времени необходимо прибавить поправку, которая в Георгиевке равна 10 ч.

Смотрите также архив погоды в соседних городах и на ближайших метеорологических станциях:

Погода в Бичевой (Хабаровский край, Россия) (36 км)
Погода в Вяземском (Хабаровский край, Россия) (61 км)
Погода в Хабаровске Агромет (Хабаровский край, Россия) (64 км)
Погода в Хабаровске (Хабаровский край, Россия) (64 км)
Погода в Гвасюгах (Хабаровский край, Россия) (74 км)
Погода в Елабуге (Хабаровский край, Россия) (106 км)
Погода в Лермонтовке (Хабаровский край, Россия) (112 км)
Погода в Смидовиче (Еврейская автономная область, Россия) (126 км)
Погода в Литовко (Хабаровский край, Россия) (143 км)
Погода в Бикине (Хабаровский край, Россия) (148 км)

Пояснения к столбцам:

Ветер - указаны скорость ветра в м/с - средняя за 10 мин, порывы в срок и между сроками (в фигурных скобках) и направление, откуда дует ветер: С - северный, СВ - северо-восточный, В - восточный, ЮВ - юго-восточный, Ю - южный, ЮЗ - юго-западный, З - западный, СЗ - северо-западный.
Видимость - горизонтальная дальность видимости в метрах или километрах. При видимости от 1 до 10 км при отсутствии осадков обычно наблюдается дымка, при ухудшении видимости до 1 км и менее - туман. В сухую погоду видимость может ухудшаться дымом, пылью или мглою.
Явления - указаны атмосферные явления, наблюдавшиеся в срок или в последний час перед сроком; фигурными скобками обозначены явления, наблюдавшиеся между сроками (за 1-3 часа до срока); квадратными скобками обозначены град или гололедные отложения с указанием их диаметра в мм.
Облачность - указаны через наклонную черту общая и нижняя облачность в баллах и высота нижней границы облаков в метрах; квадратными скобками обозначены формы облаков: Ci - перистые, Cs - перисто-слоистые, Cc - перисто-кучевые, Ac - высококучевые, As - высокослоистые, Sc - слоисто-кучевые, Ns - слоисто-дождевые, Cu - кучевые, Cb - кучево-дождевые. Подробнее классификацию облаков см. в Атласе облаков (PDF).
T - Температура воздуха - температура, измеренная на высоте 2 м над землей.
Td - Температура точки росы - температура, при понижении до которой содержащийся в воздухе водяной пар достигнет насыщения.
f - Относительная влажность воздуха - влажноcть воздуха, измеренная на высоте 2 м над землей.
Te - Эффективная температура - температура, которую ощущает одетый по сезону человек в тени. Характеристика душности погоды. При расчете учитывается влияние влажности воздуха и скорости ветра на теплоощущения человека.
Tes - Эффективная температура на солнце - температура, которую ощущает человек, с поправкой на солнечный нагрев. Характеристика знойности погоды. Зависит от высоты солнца над горизонтом, облачности и скорости ветра. Ночью, в пасмурную погоду, а также при ветре 12 м/с и более поправка равна нулю.
P - Атмосферное давление - приведенное к уровню моря атмосферное давление.
Po - Атмосферное давление - измеренное на уровне метеостанции атмосферное давление.
Tmin - Минимальная температура - минимум температуры воздуха на высоте 2 м над землей.
Tmax - Максимальная температура - максимум температуры воздуха на высоте 2 м над землей.
R - Количество осадков - Количество выпавших осадков за период времени, мм. При наведении курсора мыши на число - период времени, за который выпало указанное количество осадков.
R24 - Количество осадков - Количество выпавших осадков за 24 часа, мм.
S - Снежный покров - Высота снежного покрова, см. При наведении курсора мыши на число - состояние снежного покрова и степень покрытия местности в баллах.